Location: Auckland
(36.8670°S, 174.7670°E)
Time: 07:48:36
(UTC+12:00)

Courier 1B Rocket - Pass Details

Date: 27 July 2019
Orbit: 920 x 1202 km, 28.3° (Epoch: 24 August)

Event Time Altitude Azimuth Distance (km) Brightness Sun altitude
Rises 05:33:10 0° 277° (W) 4,106 - -22.1°
Reaches altitude 10° 05:36:14 10° 284° (WNW) 3,131 - -21.5°
Exits shadow 05:39:30 25° 299° (WNW) 2,209 6.4 -20.9°
Maximum altitude 05:43:23 40° 350° (N) 1,649 6.1 -20.1°
Drops below altitude 10° 05:50:15 10° 57° (ENE) 2,994 8.6 -18.7°
Sets 05:53:07 0° 64° (ENE) 3,909 9.6 -18.2°
